Perryton, TX

12:32 AM CST on November 20, 2017 (GMT -0600)
Perryton Ochiltree County

Weather History for KPYX - July, 2012

Change the Weather History Date:

Friday, July 20, 2012

  Actual Average Record
Temperature  
Mean Temperature 88 °F -  
Max Temperature 104 °F 92 °F 105 °F (2006)
Min Temperature 71 °F 64 °F 57 °F (1988)
Cooling Degree Days 22    
Growing Degree Days 38 (Base 50)    
Moisture  
Dew Point 49 °F    
Average Humidity 28    
Maximum Humidity 50    
Minimum Humidity 13    
Precipitation  
Precipitation 0.00 in - - ()
Sea Level Pressure  
Sea Level Pressure 30.10 in    
Wind  
Wind Speed 9 mph (SSW)    
Max Wind Speed 18 mph    
Max Gust Speed 29 mph    
Visibility 10 miles    
Events      
Averages and records for this station are not official NWS values.
T = Trace of Precipitation, MM = Missing Value Source: NWS Daily Summary

Daily Weather History Graph

Daily Weather History Graph

Search for Another Location

Airport or City:

Trip Planner

Search our weather history database for the weather conditions in past years. The results will help you decide how hot, cold, wet, or windy it might be!

Date:

Astronomy

Jul. 20, 2012 Rise Set
Actual Time 6:40 AM CDT 8:57 PM CDT
Civil Twilight 6:11 AM CDT 9:27 PM CDT
Nautical Twilight 5:35 AM CDT 10:02 PM CDT
Astronomical Twilight 4:55 AM CDT 10:42 PM CDT
Moon 8:15 AM CDT 9:44 PM CDT
Length of Visible Light 15h 15m
Length of Day
14h 17m
Waxing Crescent, 3% of the Moon is Illuminated
Jul 20
Waxing Crescent
Jul 26
First Quarter
Aug 1
Full
Aug 9
Last Quarter
Aug 17
New

Hourly Weather History & Observations

Time (CDT) Temp. Dew Point Humidity Pressure Visibility Wind Dir Wind Speed Gust Speed Precip Events Conditions
12:15 AM 78.8 °F 46.4 °F 32% 30.10 in 10.0 mi South 6.9 mph - N/A   Clear
12:35 AM 77.0 °F 46.4 °F 34% 30.10 in 10.0 mi South 6.9 mph - N/A   Clear
12:55 AM 78.8 °F 46.4 °F 32% 30.11 in 10.0 mi SSW 6.9 mph - N/A   Clear
1:15 AM 77.0 °F 46.4 °F 34% 30.11 in 10.0 mi SSW 6.9 mph - N/A   Clear
1:35 AM 75.2 °F 46.4 °F 36% 30.11 in 10.0 mi SSW 6.9 mph - N/A   Clear
1:55 AM 75.2 °F 48.2 °F 38% 30.11 in 10.0 mi SSW 8.1 mph - N/A   Clear
2:35 AM 77.0 °F 48.2 °F 36% 30.12 in 10.0 mi SSW 9.2 mph - N/A   Scattered Clouds
2:55 AM 78.8 °F 50.0 °F 36% 30.11 in 10.0 mi SW 10.4 mph - N/A   Scattered Clouds
3:15 AM 78.8 °F 50.0 °F 36% 30.11 in 10.0 mi SW 10.4 mph - N/A   Clear
3:35 AM 78.8 °F 50.0 °F 36% 30.10 in 10.0 mi SW 10.4 mph - N/A   Clear
3:55 AM 77.0 °F 50.0 °F 39% 30.10 in 10.0 mi SW 11.5 mph - N/A   Clear
4:15 AM 77.0 °F 50.0 °F 39% 30.10 in 10.0 mi SW 11.5 mph - N/A   Clear
4:35 AM 77.0 °F 50.0 °F 39% 30.10 in 10.0 mi SW 11.5 mph - N/A   Clear
4:55 AM 77.0 °F 50.0 °F 39% 30.10 in 10.0 mi SW 9.2 mph - N/A   Clear
5:15 AM 73.4 °F 50.0 °F 44% 30.10 in 10.0 mi SW 6.9 mph - N/A   Clear
5:35 AM 71.6 °F 51.8 °F 50% 30.10 in 10.0 mi WSW 6.9 mph - N/A   Clear
5:55 AM 71.6 °F 51.8 °F 50% 30.10 in 10.0 mi WSW 8.1 mph - N/A   Clear
6:15 AM 73.4 °F 51.8 °F 47% 30.10 in 10.0 mi WSW 9.2 mph - N/A   Clear
6:35 AM 75.2 °F 51.8 °F 44% 30.10 in 10.0 mi WSW 11.5 mph - N/A   Clear
6:55 AM 77.0 °F 51.8 °F 41% 30.10 in 10.0 mi West 11.5 mph - N/A   Clear
7:15 AM 75.2 °F 51.8 °F 44% 30.11 in 10.0 mi West 11.5 mph - N/A   Clear
7:35 AM 77.0 °F 51.8 °F 41% 30.12 in 10.0 mi West 12.7 mph - N/A   Clear
8:15 AM 80.6 °F 51.8 °F 37% 30.12 in 10.0 mi West 13.8 mph 18.4 mph N/A   Clear
8:55 AM 82.4 °F 51.8 °F 35% 30.14 in 10.0 mi West 10.4 mph - N/A   Clear
9:15 AM 86.0 °F 51.8 °F 31% 30.14 in 10.0 mi West 12.7 mph 16.1 mph N/A   Clear
9:35 AM 87.8 °F 51.8 °F 29% 30.14 in 10.0 mi West 12.7 mph - N/A   Clear
9:55 AM 89.6 °F 51.8 °F 27% 30.14 in 10.0 mi West 13.8 mph - N/A   Clear
10:15 AM 91.4 °F 51.8 °F 26% 30.14 in 10.0 mi West 11.5 mph 17.3 mph N/A   Clear
10:35 AM 95.0 °F 51.8 °F 23% 30.15 in 10.0 mi West 11.5 mph - N/A   Clear
10:55 AM 95.0 °F 51.8 °F 23% 30.15 in 10.0 mi West 10.4 mph 16.1 mph N/A   Clear
11:15 AM 95.0 °F 50.0 °F 22% 30.15 in 10.0 mi West 10.4 mph - N/A   Scattered Clouds
11:35 AM 96.8 °F 50.0 °F 20% 30.15 in 10.0 mi SW 4.6 mph - N/A   Scattered Clouds
11:55 AM 98.6 °F 48.2 °F 18% 30.15 in 10.0 mi WSW 6.9 mph - N/A   Scattered Clouds
12:15 PM 98.6 °F 46.4 °F 17% 30.15 in 10.0 mi WSW 3.5 mph - N/A   Clear
12:35 PM 98.6 °F 46.4 °F 17% 30.14 in 10.0 mi SW 6.9 mph - N/A   Scattered Clouds
12:55 PM 98.6 °F 46.4 °F 17% 30.14 in 10.0 mi SW 8.1 mph - N/A   Mostly Cloudy
1:15 PM 100.4 °F 46.4 °F 16% 30.13 in 10.0 mi WSW 3.5 mph - N/A   Scattered Clouds
1:35 PM 100.4 °F 48.2 °F 17% 30.12 in 10.0 mi West 5.8 mph 16.1 mph N/A   Clear
1:55 PM 102.2 °F 46.4 °F 15% 30.12 in 10.0 mi South 12.7 mph 28.8 mph N/A   Scattered Clouds
2:15 PM 98.6 °F 46.4 °F 17% 30.12 in 10.0 mi South 10.4 mph 17.3 mph N/A   Scattered Clouds
2:35 PM 100.4 °F 46.4 °F 16% 30.11 in 10.0 mi Calm Calm - N/A   Scattered Clouds
2:55 PM 100.4 °F 46.4 °F 16% 30.10 in 10.0 mi SSE 12.7 mph 16.1 mph N/A   Scattered Clouds
3:15 PM 102.2 °F 46.4 °F 15% 30.10 in 10.0 mi SSE 3.5 mph - N/A   Clear
3:35 PM 100.4 °F 46.4 °F 16% 30.10 in 10.0 mi South 8.1 mph - N/A   Scattered Clouds
3:55 PM 98.6 °F 46.4 °F 17% 30.09 in 10.0 mi SSE 8.1 mph - N/A   Mostly Cloudy
4:15 PM 104.0 °F 44.6 °F 13% 30.09 in 10.0 mi South 11.5 mph 18.4 mph N/A   Scattered Clouds
4:35 PM 104.0 °F 44.6 °F 13% 30.08 in 10.0 mi SSW 10.4 mph - N/A   Clear
4:55 PM 102.2 °F 46.4 °F 15% 30.07 in 10.0 mi SSE 9.2 mph - N/A   Clear
5:15 PM 102.2 °F 46.4 °F 15% 30.07 in 10.0 mi WSW 8.1 mph - N/A   Clear
5:35 PM 104.0 °F 44.6 °F 13% 30.06 in 10.0 mi WSW 3.5 mph - N/A   Clear
5:55 PM 102.2 °F 46.4 °F 15% 30.05 in 10.0 mi SSE 8.1 mph - N/A   Scattered Clouds
6:15 PM 100.4 °F 44.6 °F 15% 30.05 in 10.0 mi Calm Calm - N/A   Scattered Clouds
6:35 PM 100.4 °F 46.4 °F 16% 30.04 in 10.0 mi SSE 18.4 mph 26.5 mph N/A   Scattered Clouds
6:55 PM 98.6 °F 48.2 °F 18% 30.05 in 10.0 mi South 16.1 mph - N/A   Mostly Cloudy
7:15 PM 98.6 °F 46.4 °F 17% 30.05 in 10.0 mi South 10.4 mph - N/A   Scattered Clouds
7:35 PM 98.6 °F 46.4 °F 17% 30.05 in 10.0 mi South 8.1 mph - N/A   Clear
7:55 PM 96.8 °F 50.0 °F 20% 30.05 in 10.0 mi South 15.0 mph 19.6 mph N/A   Scattered Clouds
8:15 PM 93.2 °F 50.0 °F 23% 30.06 in 10.0 mi SE 11.5 mph - N/A   Scattered Clouds
8:35 PM 91.4 °F 51.8 °F 26% 30.07 in 10.0 mi South 12.7 mph - N/A   Clear
8:55 PM 89.6 °F 51.8 °F 27% 30.07 in 10.0 mi South 15.0 mph 20.7 mph N/A   Clear
9:15 PM 87.8 °F 51.8 °F 29% 30.08 in 10.0 mi SSE 10.4 mph - N/A   Clear
9:35 PM 86.0 °F 51.8 °F 31% 30.08 in 10.0 mi South 10.4 mph - N/A   Clear
9:55 PM 84.2 °F 51.8 °F 33% 30.08 in 10.0 mi South 8.1 mph - N/A   Scattered Clouds
10:15 PM 84.2 °F 51.8 °F 33% 30.09 in 10.0 mi South 6.9 mph - N/A   Scattered Clouds
10:35 PM 80.6 °F 51.8 °F 37% 30.09 in 10.0 mi SSE 6.9 mph - N/A   Clear
10:55 PM 78.8 °F 51.8 °F 39% 30.10 in 10.0 mi SSW 5.8 mph - N/A   Clear
11:15 PM 78.8 °F 51.8 °F 39% 30.10 in 10.0 mi South 5.8 mph - N/A   Mostly Cloudy
11:35 PM 80.6 °F 51.8 °F 37% 30.10 in 10.0 mi South 5.8 mph - N/A   Scattered Clouds